Погода в Тханг Квиане

Таиланд     12°47′23″N   101°39′00″E
темп.,
°C
ветер,
м/с
пор.,
м/с
влажн.,
%
обл.,
%
осадки,
мм/ч
давл.,
гПа
погр.,
м
18 сентября, сб
сб1801:00+26ю0186100 0.0 1009145
04:00+25ссв119090 0.0 100848
07:00+26св118981 0.0 100990
10:00+31зсз116622 0.0 1010712
13:00+32ююз325941 0.0 10081270
16:00+29ююз447110 1.3 1006445
19:00+27ююз238374 1.4 1008131
22:00+26ююз1285100 0.3 101059
19 сентября, вс
вс1901:00+25ю118886 2.8 100945
04:00+25зсз118663 1.1 1008133
07:00+26с118650 1.2 100981
10:00+31юз126356 0.0 1010685
13:00+30ю3266100 0.7 1008703
16:00+27юз1282100 0.8 1006103
19:00+26юв1183100 0.8 100737
22:00+26в1287100 1.4 101047
20 сентября, пн
пн2001:00+26ююв1286100 3.0 1008124
04:00+25с0187100 2.4 100758
07:00+25ссв229085 2.9 100979
10:00+26св2389100 0.9 1010164
13:00+25ссв2293100 4.4 1008143
16:00+25сз1292100 0.8 1006157
19:00+24всв0190100 0.8 100869
22:00+24св1089100 0.0 100998
21 сентября, вт
вт2101:00+24св1291100 0.6 100862
04:00+24с1291100 0.4 100770
07:00+24с1290100 0.9 1009102
10:00+26св118299 0.8 1009342
13:00+27юз338182 4.8 1006567
16:00+26зюз2388100 2.7 1005210
19:00+25з1190100 5.1 100656
22:00+25ссз1191100 1.0 100859
22 сентября, ср
ср2201:00+24с119491 4.1 100753
04:00+24св119598 3.8 100659
07:00+24всв119499 6.3 1008102
10:00+26ююв328671 3.4 1008504
13:00+26ююз4587100 8.0 1007613
16:00+25ююз4691100 3.1 1006391
19:00+25зюз3592100 4.3 1007259
22:00+25юз3591100 3.9 1009256